HST 1 20580U 90037B 26073.90160530 .00009443 00000+0 31211-3 0 9996 2 20580 28.4725 4.4435 0001763 178.3433 181.7169 15.29574848774117 POLAR 1 23802U 96013A 26072.52935318 .00000230 00000+0 00000+0 0 9990 2 23802 79.7558 228.1473 6373426 212.3300 84.2673 1.29845770143615 SWAS 1 25560U 98071A 26073.83820760 .00004307 00000+0 27874-3 0 9999 2 25560 69.8952 110.7040 0004462 2.8156 357.3032 15.08932984483030 CXO 1 25867U 99040B 26074.17591503 .00001098 00000+0 00000+0 0 9996 2 25867 54.6015 119.5309 7987924 310.6410 0.3950 0.37797975 16963 XMM-NEWTON 1 25989U 99066A 26075.60269755 .00000194 00000+0 00000+0 0 9995 2 25989 64.9536 284.1881 4708846 66.5353 0.0005 0.50127971 22545 TERRA 1 25994U 99068A 26073.91871573 .00000508 00000+0 11258-3 0 9992 2 25994 97.9582 127.1534 0003016 139.8124 273.4935 14.61020961395844 CLUSTER II-FM7 (SAMBA) 1 26410U 00041A 26072.18498853 .00009157 00000+0 00000+0 0 9991 2 26410 149.0994 35.5717 8921020 251.7870 0.4837 0.44824009 19879 CLUSTER II-FM8 (TANGO) 1 26464U 00045B 26049.06287974 .00004776 00000+0 00000+0 0 9997 2 26464 149.0711 33.5376 8890045 249.4570 359.4916 0.44405995 19769 ODIN 1 26702U 01007A 26073.66950749 .00057682 00000+0 73373-3 0 9992 2 26702 97.4069 109.9209 0004988 130.6550 229.5140 15.59178031374617 TIMED 1 26998U 01055B 26073.93238817 .00001766 00000+0 16489-3 0 9994 2 26998 74.0665 64.7666 0002984 269.1249 90.9594 14.95041750316737 CORIOLIS 1 27640U 03001A 26073.91417413 .00000178 00000+0 10403-3 0 9997 2 27640 98.7160 82.2282 0014962 122.2955 237.9673 14.19915036200844 SORCE 1 27651U 03004A 26073.48285762 .00004649 00000+0 34822-3 0 9992 2 27651 39.9905 81.7782 0015650 92.1257 268.1329 15.03138495257648 MOST 1 27843U 03031D 26073.94940962 .00000109 00000+0 69795-4 0 9991 2 27843 98.7081 82.9788 0010225 158.8230 201.3372 14.21300876177328 SCISAT 1 1 27858U 03036A 26073.88322923 .00001012 00000+0 13420-3 0 9993 2 27858 73.9328 358.6976 0005826 84.3023 275.8817 14.81324681217487 SWIFT 1 28485U 04047A 26073.66260494 .00057893 00000+0 67811-3 0 9994 2 28485 20.5524 189.3466 0004552 76.6916 283.4036 15.59759560172047 HINODE (SOLAR-B) 1 29479U 06041A 26073.61383091 .00000831 00000+0 15157-3 0 9994 2 29479 98.0618 91.1404 0016525 224.9087 135.0782 14.68483067 40990 SHIJIAN-6 02A (SJ-6 02A) 1 29505U 06046A 26073.92666365 .00009759 00000+0 51430-3 0 9993 2 29505 97.6495 114.3069 0004735 102.7676 257.4086 15.15789804 57984 SHIJIAN-6 02B (SJ-6 02B) 1 29506U 06046B 26073.96439413 .00002392 00000+0 19165-3 0 9995 2 29506 97.7079 103.6567 0013759 27.0353 333.1584 15.01027169 56602 FGRST (GLAST) 1 33053U 08029A 26073.85781772 .00004765 00000+0 18086-3 0 9993 2 33053 25.5813 139.1902 0007776 294.3572 65.6154 15.23378176981439 SDO 1 36395U 10005A 26073.04911596 -.00000057 00000+0 00000+0 0 9996 2 36395 34.4500 87.7821 0000098 96.2187 263.5038 1.00275255 59106 CRYOSAT 2 1 36508U 10013A 26073.93671424 .00000304 00000+0 74756-4 0 9990 2 36508 92.0232 254.4592 0002131 92.1352 268.0099 14.51902277844404 X-SAT 1 37389U 11015C 26073.93861825 .00000037 00000+0 33374-4 0 9991 2 37389 98.3434 55.4941 0012816 259.7542 100.2193 14.25174524774259 GCOM-W1 (SHIZUKU) 1 38337U 12025A 26073.81200802 .00000728 00000+0 17165-3 0 9992 2 38337 98.2059 15.7961 0001412 72.8642 314.6888 14.57107044735292 NUSTAR 1 38358U 12031A 26073.91668981 .00011876 00000+0 69814-3 0 9993 2 38358 6.0269 20.7508 0007448 153.4383 8.6284 15.07801250 1305 NEOSSAT 1 39089U 13009D 26073.92257716 .00000230 00000+0 94077-4 0 9994 2 39089 98.4146 256.2029 0011363 162.0473 198.1117 14.35788737683217 BRITE-AUSTRIA 1 39091U 13009F 26073.75897459 .00000279 00000+0 10951-3 0 9993 2 39091 98.3961 255.5397 0010664 156.4305 203.7372 14.36499652683490 IRIS 1 39197U 13033A 26073.81338551 .00001664 00000+0 19757-3 0 9999 2 39197 97.9397 273.3574 0023205 267.7775 92.0782 14.85664614686361 HISAKI (SPRINT-A) 1 39253U 13049A 26073.78414161 .00000132 00000+0 91216-4 0 9997 2 39253 29.7218 339.9595 0136561 331.3884 27.9249 13.55531270618604 CASSIOPE 1 39265U 13055A 26073.88942076 .00046650 -35756-6 55875-3 0 9998 2 39265 80.9196 180.6910 0313583 18.8728 342.3816 15.19203456653324 STSAT-3 1 39422U 13066G 26073.94174709 .00006153 00000+0 47172-3 0 9993 2 39422 97.6066 45.4620 0010893 355.7308 4.3822 15.02136524670055 SWARM B 1 39451U 13067A 26073.90876477 .00005691 00000+0 20775-3 0 9999 2 39451 87.7492 10.9086 0003628 83.4326 276.7336 15.27915932668840 SWARM A 1 39452U 13067B 26073.82712600 .00013963 00000+0 25846-3 0 9993 2 39452 87.3285 91.2535 0003162 94.9233 265.2389 15.48880744691634 SWARM C 1 39453U 13067C 26073.82701630 .00014224 00000+0 26328-3 0 9992 2 39453 87.3283 89.8348 0003156 95.2355 264.9265 15.48881953691597 BRITE-CA1 (TORONTO) 1 40020U 14033L 26073.92948663 .00001574 00000+0 24453-3 0 9999 2 40020 97.9575 204.6891 0078135 217.9236 141.6454 14.72481636628344 OCO 2 1 40059U 14035A 26073.87199706 .00000711 00000+0 16783-3 0 9992 2 40059 98.1999 16.6412 0001318 94.6146 265.5203 14.57101189622312 BRITE-PL2 (HEWELIUSZ) 1 40119U 14049B 26073.89651204 .00002578 00000+0 24555-3 0 9991 2 40119 97.8980 185.2568 0015107 65.3081 294.9710 14.94211481627361 MMS 1 1 40482U 15011A 26073.91668981 -.00001908 00000+0 00000+0 0 9999 2 40482 70.8127 350.0927 8404667 165.3658 43.1188 0.28295431 1369 MMS 2 1 40483U 15011B 26073.91668981 -.00001909 00000+0 00000+0 0 9991 2 40483 70.8134 350.0946 8405344 165.3719 43.1048 0.28295828 1365 MMS 3 1 40484U 15011C 26073.91668981 -.00001909 00000+0 00000+0 0 9992 2 40484 70.8153 350.0995 8404678 165.3661 43.1101 0.28295406 1368 MMS 4 1 40485U 15011D 26073.91668981 -.00001908 00000+0 00000+0 0 9992 2 40485 70.8133 350.0946 8404186 165.3734 43.0960 0.28295383 1364 ASTROSAT 1 40930U 15052A 26073.70112233 .00002205 00000+0 18743-3 0 9990 2 40930 5.9965 115.3706 0007533 127.4268 232.6546 14.82315091565786 DAMPE 1 41173U 15078A 26073.96539163 .00001538 00000+0 54648-4 0 9994 2 41173 97.4587 78.9785 0013601 54.9439 305.3076 15.30519467570138 PISAT 1 41784U 16059B 26073.93461348 .00001301 00000+0 22962-3 0 9999 2 41784 97.8192 78.4491 0029949 144.3437 215.9778 14.68788780505909 HXMT (HUIYAN) 1 42758U 17034A 26073.97748075 .00007727 00000+0 38405-3 0 9991 2 42758 43.0162 347.2746 0033279 268.0891 91.6145 15.17548560483345 FLYING LAPTOP 1 42831U 17042G 26073.97944102 .00005552 00000+0 44257-3 0 9997 2 42831 97.4278 233.4185 0019674 78.8155 281.5280 15.00560420472321 ZHANGHENG 1-01 (CSES-1) 1 43194U 18015C 26073.26013579 .00012243 00000+0 55112-3 0 9995 2 43194 97.6758 237.0795 0015099 227.8892 132.1060 15.21136298450213 SALSAT 1 46495U 20068K 26073.91115547 .00011282 00000+0 41164-3 0 9997 2 46495 97.8858 71.3452 0008046 274.1510 85.8809 15.28301739300959 IXPE 1 49954U 21121A 26073.91668981 .00014090 00000+0 80087-3 0 9993 2 49954 0.2300 310.0339 0007459 93.0949 133.0397 15.09292471 5074